Regional Weather Roundup
Issued by NWS Goodland, KS

Home | Current Version | Previous Version | Graphics & Text | Print | Product List | Glossary On
Versions: 1 2 3 4 5 6 7 8 9 10 11 12 13 14 15 16 17 18 19 20 21 22 23 24 25 26 27 28 29 30 31 32 33 34 35 36 37 38 39 40 41 42 43 44 45 46 47 48 49 50
000
ASUS43 KGLD 262208
RWRGLD

GOODLAND FORECAST AREA HOURLY WEATHER ROUNDUP
NATIONAL WEATHER SERVICE GOODLAND KS
400 PM MDT FRI AUG 26 2016

...OFFICIAL OBSERVATIONS...

CITY           SKY/WX    TMP DP  RH WIND       PRES   REMARKS
GOODLAND KS    CLOUDY    71  61  70 SE12      30.03F
HILL CITY KS   PTSUNNY   75  64  68 E10       30.04S
IMPERIAL NEB   RAIN      62  59  90 NE13      30.08R FOG
MCCOOK NEB     LGT RAIN  70  59  68 N7        30.05F
AKRON CO       CLOUDY    71  53  52 E9        30.06F
BURLINGTON CO  MOSUNNY   76  53  44 SE20      30.04F
LIMON CO       CLOUDY    74  45  35 SE13      30.09F
$$

...UNOFFICIAL OBSERVATIONS...

CITY           SKY/WX    TMP DP  RH WIND       PRES   REMARKS
COLBY KS       RAIN      70  63  78 SE6       30.05F
LENORA KS        N/A     73  32  22 MISG        N/A
NORTON KS      PTSUNNY   73  54  49 SE6       30.04
SHARON SPRINGS   N/A     80  58  47 S15         N/A
TRENTON NEB      N/A     64  32  30 MISG        N/A
KIT CARSON CO    N/A     79  54  41 MISG        N/A
YUMA CO          N/A     63  59  86 E6          N/A
$$




USA.gov is the U.S. government's official web portal to all federal, state and local government web resources and services.